CAPE
0 0 0 0 0 0 0 0 0 0 0 0 0 0 0 0 0 0 0 0 0 0 0 0 0 0 0 0 0 0 0 0 0 0 0 0 0 0 0 0 0 0 2
0 0 0 0 0 0 0 0 0 0 0 0 0 0 0 0 0 0 0 0 0 0 0 0 0 0 0 0 0 0 0 0 0 0 0 0 0 0 0 0 0 0 0
0 0 0 0 0 0 0 0 0 0 0 0 0 0 0 0 0 0 0 0 0 0 0 0 0 0 0 0 0 0 0 0 0 0 0 0 0 0 0 0 0 0 0
0 0 0 0 0 0 0 0 0 0 0 0 0 0 0 0 0 0 0 0 0 0 0 0 0 0 0 0 0 0 0 0 0 0 0 0 0 0 0 0 0 0 0
0 0 0 0 0 0 0 0 0 0 0 0 0 0 0 0 0 0 0 0 0 0 0 0 0 0 0 0 0 0 0 0 0 0 0 0 0 0 0 0 0 0 0
0 0 0 0 0 0 0 0 0 0 0 0 0 0 0 1 0 0 0 0 0 0 0 0 0 0 0 0 0 0 0 0 0 0 0 0 0 0 0 0 0 0 0
0 0 0 0 0 0 0 0 0 0 0 0 0 0 1 1 1 2 0 0 0 1 0 0 0 0 0 0 0 0 0 0 0 0 0 0 0 0 0 0 0 0 0
0 0 0 0 0 0 0 0 0 0 0 0 0 0 0 1 1 1 0 0 0 1 0 0 0 0 0 0 0 0 0 0 0 0 0 0 0 0 0 0 0 0 0
0 0 0 0 0 0 0 0 1 0 0 0 0 0 0 0 1 0 0 0 1 0 0 0 0 0 0 0 0 0 0 0 0 0 0 0 0 0 0 0 0 0 0
0 0 0 0 0 0 1 1 1 0 0 2 0 0 0 0 1 1 0 0 0 0 0 0 0 0 0 0 0 0 0 0 0 0 0 0 0 0 0 0 0 0 0
0 1 1 1 0 1 1 0 0 0 0 0 0 0 0 0 1 1 0 0 0 0 0 0 0 0 0 0 0 0 0 0 0 0 0 0 0 0 0 0 0 0 0
0 0 1 1 0 0 0 0 1 0 0 0 0 0 0 0 0 2 1 0 0 0 0 0 0 0 0 0 0 0 0 0 0 0 0 0 0 0 0 0 0 0 0
0 0 0 0 0 0 0 0 0 0 0 0 0 0 0 0 0 0 0 0 0 0 0 0 0 0 0 0 0 0 0 0 0 0 0 0 0 0 0 0 0 0 0
0 1 1 0 0 0 0 0 0 0 0 0 0 0 0 0 0 0 0 0 0 0 0 0 0 0 0 0 0 0 0 0 0 0 0 0 0 0 0 0 0 0 0
1 1 1 0 0 0 0 0 0 0 0 0 0 0 0 0 0 0 0 0 0 0 0 0 0 0 0 0 0 0 0 0 0 0 0 0 0 0 0 0 0 0 0
1 1 0 0 0 0 0 0 0 0 0 0 0 0 0 0 0 2 1 0 0 0 0 0 0 0 0 0 0 0 0 0 0 0 0 0 0 0 0 0 0 0 0
0 0 0 0 0 0 0 0 0 0 0 0 0 0 0 0 1 1 2 1 0 0 0 0 0 0 0 0 0 0 0 0 0 0 0 0 0 0 0 0 0 0 0
0 0 0 0 0 0 0 0 0 0 0 0 0 0 0 0 2 2 1 1 0 0 0 0 0 0 0 0 0 0 0 0 0 0 0 0 0 0 0 0 0 0 0
0 0 0 0 0 0 0 0 0 0 0 0 0 0 0 0 1 1 1 0 0 0 0 0 0 0 0 0 0 0 0 0 0 0 0 0 0 0 0 0 0 0 0
0 0 0 0 0 0 0 0 0 0 0 0 0 0 0 0 0 0 0 0 0 0 0 0 0 0 0 0 0 0 0 0 0 0 0 0 0 0 0 0 0 0 0
0 0 0 0 0 0 0 0 0 0 0 0 0 0 0 0 0 0 0 0 0 0 0 0 0 0 0 0 0 0 0 0 0 0 0 0 0 0 0 0 0 0 0
1 0 0 0 0 0 0 0 0 0 0 0 0 0 0 0 0 0 0 0 0 0 0 0 0 0 0 0 0 0 0 0 0 0 0 0 0 0 0 0 0 0 0
0 0 0 1 1 0 0 0 0 0 0 0 0 0 0 0 0 0 0 0 0 0 0 0 0 0 0 0 0 0 0 0 0 0 0 0 0 0 0 0 0 0 0
0 0 0 0 0 0 0 0 0 0 0 0 0 0 0 0 0 0 0 0 0 0 0 0 0 0 0 0 0 0 0 0 0 0 0 0 0 0 0 0 0 0 0
0 0 0 0 0 0 0 0 0 0 0 0 0 0 0 0 0 0 0 0 0 0 0 0 0 0 0 0 0 0 0 0 0 0 0 0 0 0 0 0 0 0 0
0 0 0 0 0 0 0 0 0 0 0 0 0 0 0 0 0 0 0 0 0 0 0 0 0 0 0 0 0 0 0 0 0 0 0 0 0 0 0 0 0 0 0
CIN
-0 -0 -0 -0 -0 -0 -0 -0 -0 -0 -0 -0 -0 -0 -0 -0 -0 -0 -0 -0 -0 -0 -0 -0 -0 -0 -0 -0 -0 -0 -0 -0 -0 -0 -0 -0 -0 -0 -0 -0 -0 -0 -1
-0 -0 -0 -0 -0 -0 -0 -0 -0 -0 -0 -0 -0 -0 -0 -0 -0 -0 -0 -0 -0 -0 -0 -0 -0 -0 -0 -0 -0 -0 -0 -0 -0 -0 -0 -0 -0 -0 -0 -0 -0 -0 -1
-0 -0 -0 -0 -0 -0 -0 -0 -0 -0 -0 -0 -0 -0 -0 -0 -0 -0 -0 -0 -0 -0 -0 -0 -0 -0 -0 -0 -0 -0 -0 -0 -0 -0 -0 -0 -0 -0 -0 -0 -0 -0 -0
-0 -0 -0 -0 -0 -0 -0 -0 -0 -0 -0 -0 -0 -0 -0 -0 -0 -0 -0 -0 -0 -0 -0 -0 -0 -0 -0 -0 -0 -0 -0 -0 -0 -0 -0 -0 -0 -0 -0 -0 -0 -0 -0
-0 -0 -0 -0 -0 -0 -0 -0 -0 -0 -0 -0 -0 -0 -0 -0 -0 -0 -0 -0 -0 -0 -0 -0 -0 -0 -0 -0 -0 -0 -0 -0 -0 -0 -0 -0 -0 -0 -0 -0 -0 -0 -0
-0 -0 -0 -0 -0 -0 -0 -0 -0 -0 -0 -0 -0 -0 -0 -0 -0 -0 -0 -0 -0 -0 -0 -0 -0 -0 -0 -0 -0 -0 -0 -0 -0 -0 -0 -0 -0 -0 -0 -0 -0 -0 -0
-0 -0 -0 -0 -0 -0 -0 -0 -0 -0 -0 -0 -0 -0 -0 -0 -0 -0 -0 -0 -0 -0 -0 -0 -0 -0 -0 -0 -0 -0 -0 -0 -0 -0 -0 -0 -0 -0 -0 -0 -0 -0 -0
-0 -0 -0 -0 -0 -0 -0 -0 -0 -0 -0 -0 -0 -0 -0 -0 -0 -0 -0 -0 -0 -0 -0 -0 -0 -0 -0 -0 -0 -0 -0 -0 -0 -0 -0 -0 -0 -0 -0 -0 -0 -0 -0
-0 -0 -0 -0 -0 -0 -0 -0 -0 -0 -0 -0 -0 -0 -0 -0 -0 -0 -0 -0 -0 -0 -0 -0 -0 -0 -0 -0 -0 -0 -0 -0 -0 -0 -0 -0 -0 -0 -0 -0 -0 -0 -0
-0 -0 -0 -0 -0 -0 -0 -0 -0 -0 -0 -0 -0 -0 -0 -0 -0 -0 -0 -0 -0 -0 -0 -0 -0 -0 -0 -0 -0 -0 -0 -0 -0 -0 -0 -0 -0 -0 -0 -0 -0 -0 -0
-0 -0 -0 -0 -0 -0 -0 -0 -0 -0 -0 -0 -0 -0 -0 -0 -0 -0 -0 -0 -0 -0 -0 -0 -0 -0 -0 -0 -0 -0 -0 -0 -0 -0 -0 -0 -0 -0 -0 -0 -0 -0 -0
-0 -0 -0 -0 -0 -0 -0 -0 -0 -0 -0 -0 -0 -0 -0 -0 -0 -0 -0 -0 -0 -0 -0 -0 -0 -0 -0 -0 -0 -0 -0 -0 -0 -0 -0 -0 -0 -0 -0 -0 -0 -0 -0
-0 -0 -0 -0 -0 -0 -0 -0 -0 -0 -0 -0 -0 -0 -0 -0 -0 -0 -0 -0 -0 -0 -0 -0 -0 -0 -0 -0 -0 -0 -0 -0 -0 -0 -0 -0 -0 -0 -0 -0 -0 -0 -0
-0 -0 -0 -0 -0 -0 -0 -0 -0 -0 -0 -0 -0 -0 -0 -0 -0 -0 -0 -0 -0 -0 -0 -0 -0 -0 -0 -0 -3 -0 -0 -0 -0 -0 -0 -0 -0 -0 -0 -0 -0 -0 -0
-0 -0 -0 -0 -0 -0 -0 -0 -0 -0 -0 -0 -0 -0 -0 -0 -0 -0 -0 -0 -0 -0 -0 -0 -0 -0 -0 -0 -0 -0 -0 -0 -0 -0 -0 -0 -0 -0 -0 -0 -0 -0 -0
-0 -0 -0 -0 -0 -0 -0 -0 -0 -0 -0 -0 -0 -0 -0 -0 -0 -0 -0 -0 -0 -0 -0 -0 -0 -0 -0 -0 -0 -0 -0 -0 -0 -0 -0 -0 -0 -0 -0 -0 -0 -0 -0
-0 -0 -0 -0 -0 -0 -0 -0 -0 -0 -0 -0 -0 -0 -0 -0 -0 -0 -0 -0 -0 -0 -0 -0 -0 -0 -0 -0 -0 -0 -0 -0 -0 -0 -0 -0 -0 -0 -0 -0 -0 -0 -0
-0 -0 -0 -0 -0 -0 -0 -0 -0 -0 -0 -0 -0 -0 -0 -0 -0 -0 -0 -0 -0 -0 -0 -0 -0 -0 -0 -0 -0 -0 -0 -0 -0 -0 -0 -0 -0 -0 -0 -0 -0 -0 -0
-0 -0 -0 -0 -0 -0 -0 -0 -0 -0 -0 -0 -0 -0 -0 -0 -0 -0 -0 -0 -0 -0 -0 -0 -0 -0 -0 -0 -0 -0 -0 -0 -0 -0 -0 -0 -0 -0 -0 -0 -0 -0 -0
-0 -0 -0 -0 -0 -0 -0 -0 -0 -0 -0 -0 -0 -0 -0 -0 -0 -1 -0 -0 -0 -0 -0 -0 -0 -0 -0 -0 -0 -0 -0 -0 -0 -0 -0 -0 -0 -0 -0 -0 -0 -0 -0
-0 -0 -0 -0 -0 -0 -0 -0 -0 -0 -0 -0 -0 -0 -0 -0 -0 -0 -0 -0 -0 -0 -0 -0 -0 -0 -0 -0 -0 -0 -0 -0 -0 -0 -0 -0 -0 -0 -0 -0 -0 -0 -0
-0 -0 -0 -0 -0 -0 -0 -0 -0 -0 -0 -0 -0 -0 -0 -0 -0 -0 -0 -0 -0 -0 -0 -0 -0 -0 -0 -0 -0 -0 -0 -0 -0 -0 -0 -0 -0 -0 -0 -0 -0 -0 -0
-0 -0 -0 -0 -0 -0 -0 -0 -0 -0 -0 -0 -0 -0 -0 -0 -0 -0 -0 -0 -0 -0 -0 -0 -0 -0 -0 -0 -0 -0 -0 -0 -0 -0 -0 -0 -0 -0 -0 -0 -0 -0 -0
-0 -0 -0 -0 -0 -0 -0 -0 -0 -0 -0 -0 -0 -0 -0 -0 -0 -0 -0 -0 -0 -0 -0 -0 -0 -0 -0 -0 -0 -0 -0 -0 -0 -0 -0 -0 -0 -0 -0 -0 -0 -0 -0
-0 -0 -0 -0 -0 -0 -0 -0 -0 -0 -0 -0 -0 -0 -0 -0 -0 -0 -0 -0 -0 -0 -0 -0 -0 -0 -0 -0 -0 -0 -0 -0 -0 -0 -0 -0 -0 -0 -0 -0 -0 -0 -0
-0 -0 -0 -0 -0 -0 -0 -0 -0 -0 -0 -0 -0 -0 -0 -0 -0 -0 -0 -0 -0 -0 -0 -0 -0 -0 -0 -0 -0 -0 -0 -0 -0 -0 -0 -0 -0 -0 -0 -0 -0 -0 -0
Wind_Speed
24 27 27 26 26 26 27 28 27 27 25 24 21 20 20 20 19 20 19 18 17 17 16 15 16 16 16 15 16 16 18 20 23 22 19 18 18 15 15 17 18 21 22
26 26 26 27 28 30 30 28 25 25 24 21 22 22 21 21 20 19 19 18 18 18 17 17 16 16 18 17 19 20 22 22 20 18 16 19 18 17 16 17 19 20 22
26 27 27 28 29 29 27 25 25 24 23 23 23 22 22 22 21 20 21 21 20 19 19 18 18 19 24 24 23 20 18 17 15 15 15 17 17 16 15 18 19 19 21
23 25 26 26 26 25 25 24 23 22 23 24 23 22 21 20 20 21 21 20 20 20 20 21 22 23 21 21 20 17 14 14 13 13 16 16 16 17 17 17 19 19 20
26 27 27 25 25 24 24 24 24 22 21 20 18 17 16 18 18 18 20 21 20 19 20 22 23 21 20 18 16 16 14 14 13 14 15 17 17 16 17 18 17 17 19
27 28 27 25 25 24 23 20 18 16 16 15 14 13 16 18 16 16 16 17 20 21 22 20 19 17 15 16 15 14 12 11 12 15 16 17 16 16 16 16 15 17 18
30 29 26 24 23 22 20 19 17 17 15 15 13 11 14 15 13 13 12 14 17 22 21 19 18 15 15 14 13 11 11 12 14 15 14 14 15 14 13 14 15 15 15
28 25 22 21 21 21 20 19 18 16 15 14 14 12 12 14 13 12 12 15 14 19 15 16 16 15 14 13 11 10 10 11 11 11 11 13 13 11 11 13 12 13 14
26 23 21 21 21 21 20 20 17 16 16 13 13 13 12 14 14 10 12 12 13 16 16 12 14 13 9 9 8 6 7 9 9 9 11 13 12 10 11 9 11 13 15
25 22 21 21 22 21 20 19 16 16 15 13 13 13 11 12 12 12 11 11 10 11 12 10 11 8 7 6 7 6 6 7 9 10 11 12 13 13 14 11 11 11 13
22 20 21 21 20 19 19 18 16 16 16 14 13 13 11 9 8 11 9 9 8 8 8 8 8 8 8 7 7 7 6 6 8 9 10 11 12 13 15 16 14 11 13
21 21 21 20 19 18 17 16 16 15 15 13 12 12 10 7 5 6 9 7 6 6 8 7 8 9 8 6 5 5 5 7 8 9 10 11 12 12 13 14 15 15 16
20 21 20 18 17 16 16 16 17 15 14 12 11 9 9 8 7 7 7 7 9 12 9 7 6 5 3 4 4 5 6 7 8 8 9 11 12 12 11 12 14 15 16
19 18 17 17 17 15 15 14 13 13 11 12 10 7 7 9 7 5 5 6 6 5 4 5 5 4 5 9 6 8 7 7 8 9 10 12 13 12 11 11 12 14 15
18 18 18 16 14 14 14 12 11 10 8 6 7 5 4 5 6 3 4 4 6 5 4 4 5 7 8 8 8 7 8 8 9 11 10 10 11 12 12 13 13 14 15
18 16 14 12 12 12 12 12 10 9 8 7 6 5 8 8 5 4 4 4 4 4 6 6 7 6 5 6 6 7 9 9 10 10 10 9 10 11 13 14 13 14 14
16 13 12 11 11 9 9 8 9 9 8 8 7 8 6 5 5 5 4 3 3 5 9 6 6 6 7 8 8 9 10 10 10 10 10 10 10 12 13 14 14 15 15
13 12 10 10 8 8 8 8 9 10 9 8 10 7 7 6 6 6 5 5 5 11 10 8 7 8 9 9 10 10 10 10 11 11 11 11 11 12 14 15 16 15 17
11 11 10 9 7 7 9 9 8 9 9 9 8 9 8 8 7 6 5 8 9 12 11 9 8 9 10 11 10 10 10 10 10 11 12 12 12 13 14 15 16 17 18
11 10 9 8 7 7 7 8 9 9 10 10 9 10 9 10 10 11 11 11 11 11 11 11 11 11 11 11 10 10 11 11 11 13 13 13 14 14 16 16 17 18 18
11 11 9 8 8 7 7 8 9 9 10 11 10 9 8 9 11 12 12 13 13 12 12 14 12 12 11 11 10 10 11 12 12 13 14 14 15 16 16 17 17 17 19
11 12 12 12 11 10 9 8 8 9 9 10 10 10 9 10 11 12 13 15 13 10 11 13 11 11 11 10 10 11 12 13 13 13 13 14 15 16 16 16 17 19 20
11 11 11 11 10 10 9 9 10 10 9 9 9 9 10 11 11 12 12 11 12 12 12 11 11 11 11 11 11 12 13 13 12 11 12 14 15 15 15 17 19 21 22
10 10 10 10 10 10 9 10 10 10 10 9 9 9 9 10 11 11 10 9 10 12 10 9 9 10 10 10 11 12 12 12 11 11 12 13 14 15 17 17 19 20 20
10 10 10 10 10 10 10 10 10 10 9 9 9 9 8 8 8 9 9 9 8 8 9 8 8 7 7 8 9 9 11 11 11 10 11 12 13 14 15 16 18 20 21
10 10 10 10 11 11 11 11 10 10 9 8 8 8 8 7 7 6 7 6 7 7 8 8 8 8 7 7 8 9 10 10 10 10 11 12 14 15 15 17 18 19 20
Wind_Direction
319 315 312 310 310 309 307 308 307 307 303 300 301 302 301 300 297 294 290 287 285 288 291 293 298 306 308 311 311 310 306 304 300 305 304 312 319 325 330 334 335 331 337
322 318 316 316 313 310 310 309 309 307 303 299 297 296 295 294 293 290 286 284 281 282 287 287 293 301 306 309 306 305 304 305 298 296 304 304 316 319 321 325 325 333 332
323 320 319 318 318 320 320 318 315 310 306 302 298 294 293 291 290 289 286 282 281 282 286 287 292 297 297 298 302 303 304 306 304 297 300 304 313 315 320 326 327 331 336
327 326 323 323 324 324 326 325 323 319 311 305 300 295 293 292 287 286 283 279 278 281 284 289 294 299 297 298 300 304 306 303 303 299 298 301 307 311 313 315 325 334 335
324 324 322 324 325 326 327 327 327 326 320 310 301 299 296 296 293 289 285 278 274 276 283 290 297 298 297 299 300 301 302 301 298 295 296 298 301 306 310 314 319 334 339
322 322 322 323 324 327 328 333 335 337 335 319 305 296 296 302 294 292 288 283 279 276 281 289 297 301 304 302 304 311 309 299 296 297 297 298 302 304 310 315 323 323 333
318 319 320 323 325 331 334 336 337 338 341 336 319 309 302 303 303 296 293 289 289 280 284 287 289 298 302 304 312 321 321 314 304 300 300 301 302 306 316 323 325 331 339
319 320 322 323 329 333 334 335 337 340 341 339 333 322 314 304 303 296 296 295 292 283 294 293 289 293 299 303 309 314 319 321 323 319 313 310 315 321 329 332 341 348 353
318 321 322 326 329 331 333 334 335 336 337 340 339 326 317 305 296 295 296 298 297 283 289 295 287 292 312 308 303 319 325 321 328 328 332 335 340 344 337 341 336 342 346
318 319 322 326 326 327 329 332 335 335 339 344 344 340 327 311 293 288 292 293 297 295 291 297 292 306 320 313 301 318 328 323 316 314 326 343 355 354 346 338 335 341 346
320 325 325 328 331 333 333 334 332 335 336 342 347 352 349 338 322 290 287 297 300 293 293 300 310 303 306 302 304 309 315 328 317 323 333 344 351 356 359 3 4 354 347
325 326 325 329 332 336 336 335 334 333 333 338 346 353 352 355 9 313 296 304 300 299 295 308 299 288 294 304 323 342 341 331 324 323 334 340 343 348 356 4 11 13 5
324 325 328 332 335 338 336 333 329 326 324 331 339 352 344 355 340 322 313 304 300 290 293 287 295 313 331 334 341 338 326 325 330 341 343 340 341 346 355 359 359 359 357
326 329 333 335 338 342 344 342 335 323 327 322 333 351 343 334 332 340 346 331 327 331 351 324 330 344 325 308 310 312 329 336 343 339 338 340 342 349 353 354 354 352 350
330 331 333 338 345 349 351 353 349 334 333 345 349 5 43 345 328 29 9 20 48 32 17 344 319 301 296 307 320 334 333 333 331 331 337 346 351 353 352 354 350 342 340
329 333 339 345 351 358 358 5 7 354 348 347 352 348 311 324 346 5 17 50 50 36 327 307 302 313 330 331 334 327 323 326 329 337 341 347 350 349 345 343 344 344 343
334 340 344 345 352 10 28 38 34 19 14 41 354 309 334 356 352 339 349 13 23 339 320 321 314 311 312 312 314 315 317 321 328 332 336 341 342 339 340 341 340 339 337
349 351 353 352 6 33 53 31 40 55 41 24 63 19 13 10 2 359 5 2 336 319 319 316 309 308 308 308 308 312 317 319 323 326 328 330 330 331 333 334 335 334 333
2 359 358 4 14 41 55 58 36 15 20 10 19 354 4 13 12 14 18 337 319 312 315 312 308 308 307 308 308 311 315 315 318 321 321 320 322 326 329 330 331 331 331
19 21 23 25 33 41 48 41 39 30 0 350 337 330 336 337 332 328 329 331 328 319 316 313 309 307 306 306 306 307 311 311 310 312 314 317 319 321 322 324 326 328 330
51 62 53 46 45 41 33 21 15 7 354 345 342 338 334 330 328 327 324 322 319 314 312 311 310 310 309 309 308 307 309 310 309 309 310 313 318 318 320 322 325 328 329
54 74 82 87 84 80 70 53 40 26 14 4 355 350 347 338 334 330 327 326 326 319 318 318 315 315 313 309 307 306 307 308 309 309 311 314 317 319 321 322 324 325 325
55 72 76 76 74 71 58 49 40 32 26 19 11 0 349 343 339 336 335 337 336 329 325 324 322 320 318 314 312 311 311 310 310 312 314 316 317 319 321 320 320 321 322
55 63 68 69 66 66 59 51 43 36 32 28 23 12 4 359 357 357 358 0 354 348 351 347 340 333 329 327 324 321 321 322 321 318 319 319 319 321 322 323 322 324 325
65 68 70 70 67 64 61 57 56 53 50 47 40 30 26 23 21 23 26 31 33 27 25 24 22 19 8 350 345 342 335 332 330 328 327 326 325 325 326 325 324 325 326
66 66 66 65 66 68 70 69 70 71 67 66 60 53 53 57 57 57 51 50 60 57 46 42 38 38 33 22 13 2 355 351 347 344 338 332 329 328 327 325 325 326 327